Regional Weather Roundup
Issued by NWS

Home | Current Version | Previous Version | Graphics & Text | Print | Product List | Glossary On
Versions: 1 2 3 4 5 6 7 8 9 10 11 12 13 14 15 16 17 18 19 20 21 22 23 24 25 26 27 28 29 30 31 32 33 34 35 36 37 38 39 40 41 42 43 44 45 46 47 48 49 50
000
ASUS43 KIND 230009
RWRIN

WEATHER ROUNDUP FOR INDIANA
NATIONAL WEATHER SERVICE INDIANAPOLIS IN
700 PM EST MON JAN 22 2018

NOTE: "FAIR" INDICATES FEW OR NO CLOUDS BELOW 12,000 FEET WITH NO
SIGNIFICANT WEATHER AND/OR OBSTRUCTIONS TO VISIBILITY.

* - STATION DOES NOT REPORT WEATHER SUCH AS PRECIPITATION OR FOG.

+ - STATION NOT QUALITY CONTROLLED BY THE NATIONAL WEATHER SERVICE.
    USE DATA WITH CAUTION...ESPECIALLY DEWPOINT AND RELATIVE
    HUMIDITY OBSERVATIONS.

INZ001>003-010>013-019-020-230100-
NORTHWEST INDIANA

CITY           SKY/WX    TMP DP  RH WIND       PRES   REMARKS
GARY /AIRPORT/ MOCLDY    52  46  82 S12       29.48R
KNOX *+        MOCLDY    50  46  87 S7        29.52R
LA PORTE +     FAIR      48  46  93 S9        29.51S
6HR MIN TEMP:  48; 6HR MAX TEMP:  52;

MICHIGAN CITY+ FAIR      50  46  87 S7        29.51S
MONTICELLO +   CLOUDY    51  45  80 S9        29.50F
6HR MIN TEMP:  51; 6HR MAX TEMP:  54;

RENSSELAER +   MOCLDY    48  43  81 SE7       29.49S
VALPARAISO     MOCLDY    51  47  86 MISG      29.50S
6HR MIN TEMP:  50; 6HR MAX TEMP:  54; 6HR PCP: TRACE;


$$

LMZ046-743>745-230100-
SOUTHERN LAKE MICHIGAN

STATION/POSITION TIME  TEMP    WIND        PRES    WAVE
                       AIR SEA DIR/SP/G            HT
                 (UTC) (F)     (DEG/KT/KT) (MB)    (FT)
BURNS HARBOR     0000   51     170/ 10/ 21  999.0
MICHIGAN CITY    2340   51     160/ 11/ 15   N/A

$$

INZ004-005-014>016-021>024-230100-
NORTH CENTRAL INDIANA

CITY           SKY/WX    TMP DP  RH WIND       PRES   REMARKS
ELKHART        MOCLDY    50  48  93 S9        29.53S
GOSHEN         FAIR      49  47  93 S12       29.54R
6HR MIN TEMP:  49; 6HR MAX TEMP:  53; 6HR PCP: TRACE;

LOGANSPORT +   MOCLDY    46  45  93 S9        29.54S
PERU/GRISSOM   MOCLDY    49  49 100 S8        29.54R
6HR MIN TEMP:  49; 6HR MAX TEMP:  54;

ROCHESTER +    FAIR      50  50 100 S6        29.54R
SOUTH BEND     MOCLDY    49  46  90 S12       29.53R
6HR MIN TEMP:  49; 6HR MAX TEMP:  52; 6HR PCP: TRACE;

WARSAW +       FAIR      46  46 100 S5        29.55R

$$

INZ006>009-017-018-025>027-230100-
NORTHEAST INDIANA

CITY           SKY/WX    TMP DP  RH WIND       PRES   REMARKS
AUBURN +       CLOUDY   N/A N/A N/A S5        29.58S
FORT WAYNE     CLOUDY    52  49  89 S13       29.58F
6HR MIN TEMP:  52; 6HR MAX TEMP:  54;

HUNTINGTON +   CLOUDY    51  49  93 S8        29.56F
6HR MIN TEMP:  51; 6HR MAX TEMP:  53;

KENDALLVILLE + MOCLDY    49  49  99 S12       29.56S

$$

INZ028-029-035-036-043>045-051>053-230100-
WEST CENTRAL INDIANA

CITY           SKY/WX    TMP DP  RH WIND       PRES   REMARKS
CRAWFORDSVL +  MOCLDY    49  48  95 S12       29.52F
6HR MIN TEMP:  49; 6HR MAX TEMP:  51;

GREENCASTLE +  FAIR      52  45  76 S9        29.54S
LAFAYETTE      MOCLDY    51  46  83 S9        29.51S
6HR MIN TEMP:  51; 6HR MAX TEMP:  54; 6HR PCP: TRACE;

TERRE HAUTE    MOCLDY    52  47  83 SE10      29.51F
6HR MIN TEMP:  52; 6HR MAX TEMP:  55;


$$

INZ030>032-037>040-046>048-054>057-064-065-230100-
CENTRAL INDIANA

CITY           SKY/WX    TMP DP  RH WIND       PRES   REMARKS
COLUMBUS       CLOUDY    50  48  93 S8        29.60S
FRANKFORT +    MOCLDY    49  47  90 S7        29.54F
6HR MIN TEMP:  49; 6HR MAX TEMP:  55;

INDIANAPOLIS   MOCLDY    52  47  83 S16       29.56S
6HR MIN TEMP:  52; 6HR MAX TEMP:  54;

-EAGLE CREEK   FAIR      53  47  79 S9        29.54F
6HR MIN TEMP:  53; 6HR MAX TEMP:  54;

MARION +       FAIR      50  47  89 S13       29.56F
MT COMFORT *+  FAIR      48  48 100 S9        29.57S
SHELBYVILLE    MOCLDY    53  48  83 S12       29.58S
6HR MIN TEMP:  52; 6HR MAX TEMP:  54; 6HR PCP: TRACE;

ZIONSVILLE +   FAIR      51  47  88 S13G18    29.55F
6HR MIN TEMP:  51; 6HR MAX TEMP:  52;


$$

INZ033-034-041-042-049-050-058-059-230100-
EAST CENTRAL INDIANA

CITY           SKY/WX    TMP DP  RH WIND       PRES   REMARKS
MUNCIE         CLOUDY    55  48  77 S15       29.57F
6HR MIN TEMP:  54; 6HR MAX TEMP:  56; 6HR PCP: TRACE;

RICHMOND +     CLOUDY    46  46 100 S13       29.61F

$$

INZ060-061-067>069-081>083-085>088-230100-
SOUTHWEST INDIANA

CITY           SKY/WX    TMP DP  RH WIND       PRES   REMARKS
EVANSVILLE     FAIR      54  42  64 SW16      29.60R
6HR MIN TEMP:  54; 6HR MAX TEMP:  60;

HUNTINGBURG +  FAIR      54  50  86 S8        29.58F
6HR MIN TEMP:  53; 6HR MAX TEMP:  57;

WASHINGTON +   FAIR      51  46  83 S9        29.56S
6HR MIN TEMP:  51; 6HR MAX TEMP:  56;


$$

INZ062-063-066-070>080-084-089>092-230100-
SOUTH CENTRAL AND SOUTHEAST INDIANA

CITY           SKY/WX    TMP DP  RH WIND       PRES   REMARKS
BATESVILLE *+    N/A    N/A N/A N/A MISG        N/A
BLOOMINGTON    MOCLDY    54  48  80 S13G23    29.56S
6HR MIN TEMP:  53; 6HR MAX TEMP:  56;

FRENCH LICK *+ MOCLDY    54  50  87 S8        29.58F
MADISON *+     CLOUDY    55  50  82 S7        29.62F
NORTH VERNON + FAIR      54  48  82 S9G20     29.60F
SEYMOUR +      MOCLDY    54  48  82 S6        29.59F

$$





USA.gov is the U.S. government's official web portal to all federal, state and local government web resources and services.